Volver al catálogo

SL-14 DEB

ActivoPO
NORAD 47080·DEBRIS·🇷🇺 Russia

Lanzado Aug 15, 1991 desde Plesetsk Cosmodrome

Loading…

Próximos Pases (próximas 24 horas)

TLE

ActualizadoSource: Space-Track

Época: Sep 14, 2026, 06:23 UTC

1 47080U 91056DE  26257.26653541  .00011089  00000-0  54356-2 0  9998
2 47080  82.5114 245.3643 0123210 251.2576 107.5198 14.13834873294587

Sigue SL-14 DEB en tiempo real con AllMySat

Download on the App Store